User: anonymous   Login
Location: Caltech
(34.1382°N, 118.1253°W)
Time: 09:05:19
(UTC-07:00)
Language:

Cosmos 44 Rocket - Orbit

View from above orbital plane
View from above orbital plane
View from above satellite
View from above satellite

Ground track
Ground track

The orbit data is extracted from the following two-line orbital elements,

1 00877U 64053B   15087.59300351  .00000272  00000-0  81445-4 0  9994
2 00877 065.0778 143.4382 0051164 062.5575 298.0713 14.59066857683096
Epoch (UTC): 28 March 2015 14:13:55
Eccentricity: 0.0051164
inclination: 65.0778°
perigee height: 660 km
apogee height: 732 km
right ascension of ascending node: 143.4382°
argument of perigee: 62.5575°
revolutions per day: 14.59066857
mean anomaly at epoch: 298.0713°
orbit number at epoch: 68309

The dashed part of the orbit path shows where the satellite is in the earth's shadow,  

DLR